TimePDT,TemperatureF,Dew PointF,Humidity,Sea Level PressureIn,VisibilityMPH,Wind Direction,Wind SpeedMPH,Gust SpeedMPH,PrecipitationIn,Events,Conditions,WindDirDegrees,DateUTC
12:31 AM,60.8,53.6,77,29.95,8.0,Calm,Calm,-,N/A,,Overcast,0,2013-03-26 07:31:00
12:45 AM,60.8,53.6,77,29.95,7.0,SSE,3.5,-,N/A,,Overcast,150,2013-03-26 07:45:00
12:53 AM,60.1,54.0,80,29.95,8.0,Variable,3.5,-,N/A,,Overcast,0,2013-03-26 07:53:00
1:53 AM,60.1,54.0,80,29.95,6.0,Calm,Calm,-,N/A,,Haze,0,2013-03-26 08:53:00
2:53 AM,60.1,53.1,78,29.93,6.0,Calm,Calm,-,N/A,,Haze,0,2013-03-26 09:53:00
3:10 AM,60.8,53.6,77,29.93,6.0,South,3.5,-,N/A,,Haze,190,2013-03-26 10:10:00
3:53 AM,60.1,53.1,78,29.92,6.0,Calm,Calm,-,N/A,,Haze,0,2013-03-26 10:53:00
4:53 AM,59.0,53.1,81,29.93,7.0,South,4.6,-,N/A,,Overcast,180,2013-03-26 11:53:00
5:27 AM,59.0,51.8,77,29.93,7.0,SW,4.6,-,N/A,,Overcast,220,2013-03-26 12:27:00
5:53 AM,59.0,52.0,78,29.93,7.0,Calm,Calm,-,N/A,,Overcast,0,2013-03-26 12:53:00
6:53 AM,60.1,51.1,72,29.94,8.0,Calm,Calm,-,N/A,,Overcast,0,2013-03-26 13:53:00
7:53 AM,60.1,51.1,72,29.95,6.0,Calm,Calm,-,N/A,,Haze,0,2013-03-26 14:53:00
8:49 AM,62.6,51.8,68,29.96,7.0,Calm,Calm,-,N/A,,Overcast,0,2013-03-26 15:49:00
8:53 AM,62.1,51.1,67,29.96,7.0,ESE,3.5,-,N/A,,Overcast,110,2013-03-26 15:53:00
9:24 AM,62.6,50.0,63,29.96,7.0,Calm,Calm,-,N/A,,Scattered Clouds,0,2013-03-26 16:24:00
9:53 AM,64.9,50.0,58,29.96,8.0,Calm,Calm,-,N/A,,Clear,0,2013-03-26 16:53:00
10:53 AM,66.9,50.0,54,29.96,9.0,Variable,3.5,-,N/A,,Clear,0,2013-03-26 17:53:00
11:53 AM,70.0,48.9,47,29.95,10.0,WSW,4.6,-,N/A,,Clear,240,2013-03-26 18:53:00
12:53 PM,73.0,50.0,44,29.94,10.0,SW,4.6,-,N/A,,Clear,230,2013-03-26 19:53:00
1:53 PM,72.0,48.9,44,29.93,10.0,SSW,8.1,-,N/A,,Clear,210,2013-03-26 20:53:00
2:53 PM,72.0,46.9,41,29.92,10.0,Variable,6.9,-,N/A,,Clear,0,2013-03-26 21:53:00
3:53 PM,71.1,48.9,45,29.91,10.0,SSW,5.8,-,N/A,,Clear,210,2013-03-26 22:53:00
4:53 PM,71.1,51.1,49,29.90,10.0,SW,6.9,-,N/A,,Clear,220,2013-03-26 23:53:00
5:53 PM,66.9,52.0,59,29.89,10.0,SSW,8.1,-,N/A,,Clear,200,2013-03-27 00:53:00
6:53 PM,66.0,48.0,52,29.90,10.0,South,5.8,-,N/A,,Clear,180,2013-03-27 01:53:00
7:53 PM,63.0,52.0,67,29.91,10.0,South,4.6,-,N/A,,Clear,180,2013-03-27 02:53:00
8:53 PM,62.1,52.0,70,29.93,10.0,SSW,3.5,-,N/A,,Clear,200,2013-03-27 03:53:00
9:53 PM,61.0,51.1,70,29.95,10.0,Calm,Calm,-,N/A,,Clear,0,2013-03-27 04:53:00
10:53 PM,61.0,52.0,72,29.96,9.0,East,3.5,-,N/A,,Mostly Cloudy,100,2013-03-27 05:53:00
11:53 PM,60.1,52.0,75,29.97,10.0,SSE,4.6,-,N/A,,Overcast,160,2013-03-27 06:53:00